Regional Weather Roundup
Issued by NWS Green Bay, WI

Home | Current Version | Previous Version | Text Only | Print | Product List | Glossary On
Versions: 1 2 3 4 5 6 7 8 9 10 11 12 13 14 15 16 17 18 19 20 21 22 23 24 25 26 27 28 29 30 31 32 33 34 35 36 37 38 39 40 41 42 43 44 45 46 47 48 49 50
000
ASUS43 KGRB 241810
RWRGRB

NORTH-CENTRAL AND NORTHEAST WISCONSIN REGIONAL WEATHER ROUNDUP
NATIONAL WEATHER SERVICE GREEN BAY WI
1200 PM CST MON NOV 24 2014

WIZ005-009-010>012-018-019-241900-
NORTH CENTRAL WISCONSIN

CITY           SKY/WX    TMP DP  RH WIND       PRES   REMARKS
IRONWOOD       CLOUDY    28  28 100 NW20      29.21R VSB 1/2
MANITOWISH WTR LGT SNOW  30  30  98 N10G18    29.17R
ARBOR VITAE    LGT SNOW  33  31  92 N18G24    29.15R
EAGLE RIVER    LGT SNOW  31  30  94 N17       29.13R
LAND O LAKES   LGT SNOW  30  27  89 N15       29.15R
RHINELANDER    LGT SNOW  32  31  96 VRB3      29.13R VSB 3/4
PHILLIPS       LGT SNOW  31  30  95 N9        29.19R VSB 1
ANTIGO         LGT RAIN  34  33  97 N13       29.10R
TOMAHAWK       SNOW      32  32  99 NW14      29.15R VSB 1/2
MERRILL        LGT SNOW  33  33  98 NW9       29.14R
$$

WIZ013-073-241900-
NORTHEAST WISCONSIN

CITY           SKY/WX    TMP DP  RH WIND       PRES   REMARKS
IRON MOUNTAIN  CLOUDY    35  30  82 NW14      29.08R
MARINETTE      CLOUDY    41  37  87 N13G21    29.05R
OCONTO         CLOUDY    41  39  93 N12       29.06R
$$

WIZ017-030-035>037-045-241900-
CENTRAL WISCONSIN

CITY           SKY/WX    TMP DP  RH WIND       PRES   REMARKS
MEDFORD        LGT SNOW  32  30  95 NW12G17   29.17R VSB 1
WAUSAU         LGT SNOW  33  32  96 NW12      29.13R FOG
MOSINEE        NOT AVBL
MARSHFIELD     SNOW      32  29  88 NW21G29   29.19R VSB 1/2
WISC RAPIDS    SNOW      33  30  88 W21G28    29.19R
STEVENS POINT  MIX PCPN  31  31  99 W8        29.15R VSB 3/4
WAUPACA        RAIN      39  38  94 W12       29.13R
SHAWANO        DRIZZLE   41  40  95 NW5       29.09R
CLINTONVILLE   LGT RAIN  37  37 100 W8        29.10R
$$

WIZ038-039-048-051-241900-
FOX VALLEY

CITY           SKY/WX    TMP DP  RH WIND       PRES   REMARKS
NWS GREEN BAY  CLOUDY    43  39  86 NW9       29.07R
APPLETON       LGT RAIN  39  39 100 W14       29.09R FOG
OSHKOSH        LGT RAIN  39  36  89 W14       29.11R FOG
FOND DU LAC    RAIN      38  35  89 W14G22    29.13R FOG
$$

WIZ022-050-052-241900-
EAST CENTRAL WISCONSIN

CITY           SKY/WX    TMP DP  RH WIND       PRES   REMARKS
STURGEON BAY   CLOUDY    41  37  87 NW13      29.06R
MANITOWOC      LGT RAIN  44  42  93 NW10      29.07R
SHEBOYGAN      LGT RAIN  41  39  93 W13       29.09R
$$

LMZ563-521-522-541>543-241900-
LAKESHORE

STATION/POSITION TIME  TEMP    WIND        PRES    VSBY  WAVE
                       AIR SEA DIR/SP/G                  HT/PER
                 (UTC) (F)     (DEG/KT/KT) (MB)    (MI)  (FT/S)
SHEBOYGAN LKSHOR 1800   42 38  260/ 14/ 17  985.4R
KEWAUNEE LKSHORE 1800   43     320/  6/ 10  983.3R
NORTHPORT PIER   1800   41     340/ 15/ 20  983.7S
N MID LAKE BUOY  1800   41 42  330/ 21/ 25  982.4F         1/ 5
SISTER BAY LKSHO 1700          360/ 11/ 12   N/A
CHAMBERS ISLAND  1800   42     310/ 14/ 17  984.4R
MENOMINEE LKSHOR 1800   40     310/ 17/ 20  984.8R
$$


USA.gov is the U.S. government's official web portal to all federal, state and local government web resources and services.